1704 visiteurs
Prévisions de votre ville :
Vigilance : 7 départements Mise à jour le 15/10/2019 à 16:07 - Voir la carte

Paris Roissy CDG (95380) le 15/10/2019 à 17:30 Choisir station

16°C 59 % SO Vit. moyenne 24 kmh/h

Relevés météo quotidiens pour la station de :

UTC
S: Synop
M: Metar
Loc T°C
(°C)
Td
(°C)
HR
(%)
Vis
(km)
Néb
(octa)
Vent
(km/h)
Pression
(mb)
Précipitations
(mm)
Temps
              MOY
10 min
DIR RAF 1h MESURE VAR SUR 3h    
S 00 h 02h 20.6 15.8 74 22 - - - 4 1019.9 0.0/3h 0.0/6h - 0.0/3h -
S 01 h 03h 18.7 15.6 82 19 - 4 9 1019.9 -0.3/3h 0.0/1h -
S 02 h 04h 18.1 15.4 84 26 - - - 4 1019.9 -0.4/3h 0.0/1h -
S 03 h 05h 17.1 15.1 88 15 - - - 6 1019.9 -0.4/3h 0.0/3h -
S 04 h 06h 16.5 14.9 90 16 - - - 4 1019.6 -0.5/3h 0.0/1h -
S 05 h 07h 16.4 14.8 90 11 - 2 2 1019.6 -0.4/3h 0.0/1h -
S 06 h 08h 21.2 16.4 74 17 - - - 4 1019.0 -0.4/3h 0.0/12h - 0.0/3h - 0.0/24h -
S 07 h 09h 25.5 15.8 55 35 - 6 11 1018.5 -0.2/3h 0.0/1h -
S 08 h 10h 28.6 16.5 48 50 - 4 9 1018.0 -0.4/3h 0.0/1h -
S 09 h 11h 31.6 16.4 40 17 - 2 7 1017.4 -0.7/3h 0.0/3h -
S 10 h 12h 33.4 16.3 36 14 - 2 7 1016.9 -0.9/3h 0.0/1h -
S 11 h 13h 34.9 15.3 31 28 - 2 19 1016.4 -1.1/3h 0.0/1h -
S 12 h 14h 36.3 15.4 29 26 - 6 20 1015.4 -1.5/3h 0.0/6h - 0.0/3h -
S 13 h 15h 36.9 13.6 25 11 - 7 26 1015.1 -1.5/3h 0.0/1h -
S 14 h 16h 37.5 12.2 22 19 - 6 22 1014.4 -1.7/3h 0.0/1h -
S 15 h 17h 38.5 11.6 20 18 - 6 17 1013.6 -1.6/3h 0.0/3h -
S 16 h 18h 38.9 10.3 18 35 - 4 15 1013.1 -1.8/3h 0.0/1h -
S 17 h 19h 38.3 10.6 19 30 - 4 15 1012.8 -1.5/3h 0.0/1h -
S 18 h 20h 36.2 12.4 24 28 - 7 17 1013.2 -0.6/3h 0.0/12h - 0.0/3h -
S 19 h 21h 32.6 14.2 33 29 - 9 15 1013.4 -0.2/3h 0.0/1h -
S 20 h 22h 30.8 15.6 40 30 - 6 7 1013.5 +0.1/3h 0.0/1h -
S 21 h 23h 28.6 14.8 43 27 - 6 17 1013.9 +0.1/3h 0.0/3h -
S 22 h 00h 25.5 14.6 51 22 - 2 9 1014.5 +0.5/3h 0.0/1h -
S 23 h 01h 25.6 14.7 51 25 - 2 7 1014.6 +0.6/3h 0.0/1h -
evolution des temperatures
cumul des precipitations
vent moyen et rafales
pression atmospherique

Un tiret (-) signifie que les données ne sont pas disponibles.

Passez la souris sur les pictos temps pour avoir plus de précisions. Passez les flèches sur l'icône de la direction du vent pour voir la direction précise en degrés.

Les données de l'heure en cours sont disponibles à partir de H+15 minutes.


S signifie station Synop, plus complète qu'une station Metar (M). Il y a +1h de différence entre l'heure UTC et l'heure légale en hiver et +2h en été.

Td est la mesure du point de rosée.

HR est l'humidité relative/p>

Vis est la visibilité

Néb est la nébulosité du ciel (couverture nuageuse) exprimée en octas (de 0/8 à 8/8).

Vent moy 10 min donne le vent moyen sur les 10 minutes qui précèdent le relevé.

Vent raf 1h donne la rafale maximale mesurée dans l'heure qui précède le relevé.


Les données les plus anciennes remontent à avril 2014.

Les données présentées sur cette page proviennent des stations météo officielles. Les relevés sont effectués aux normes en vigueur (anémomètre à 10m de haut, thermomètre sous abri normalisé à 2m du sol...)

Météo 60 décline toute responsabilité en cas d'absence de données, d'erreurs, de mauvaise utilisation ou interprétation et n'est pas habilité à fournir des certificats intempéries.